QPF
0.06 0.10 0.15 0.03 0.01 0.00 0.00 0.00 0.00 0.00 0.00 0.00 0.00 0.00 0.00 0.00 0.00 0.00 0.00 0.00 0.00 0.00 0.00 0.00 0.00 0.00 0.00 0.00 0.00 0.00 0.00 0.00 0.00 0.00 0.00 0.00 0.00 0.00 0.00 0.00 0.00 0.00 0.01 0.01 0.01 0.00 0.00 0.02 0.02
0.14 0.10 0.05 0.03 0.05 0.00 0.00 0.00 0.00 0.00 0.00 0.00 0.00 0.00 0.00 0.00 0.00 0.00 0.00 0.00 0.00 0.00 0.00 0.00 0.00 0.00 0.00 0.00 0.00 0.00 0.00 0.00 0.00 0.00 0.00 0.00 0.00 0.00 0.00 0.03 0.00 0.00 0.01 0.03 0.04 0.01 0.01 0.00 0.00
0.04 0.02 0.03 0.06 0.01 0.00 0.00 0.00 0.00 0.00 0.00 0.00 0.00 0.00 0.00 0.00 0.00 0.00 0.00 0.00 0.00 0.00 0.00 0.00 0.00 0.00 0.00 0.00 0.00 0.00 0.00 0.00 0.00 0.00 0.00 0.00 0.00 0.00 0.01 0.00 0.01 0.00 0.00 0.01 0.02 0.01 0.00 0.00 0.00
0.01 0.00 0.03 0.01 0.00 0.01 0.01 0.00 0.00 0.00 0.00 0.00 0.00 0.00 0.00 0.00 0.00 0.00 0.00 0.00 0.00 0.00 0.00 0.00 0.00 0.00 0.00 0.00 0.00 0.00 0.00 0.00 0.00 0.00 0.00 0.00 0.00 0.00 0.00 0.00 0.00 0.00 0.00 0.00 0.00 0.01 0.01 0.00 0.00
0.00 0.00 0.00 0.00 0.01 0.01 0.01 0.00 0.00 0.00 0.00 0.00 0.00 0.00 0.00 0.00 0.00 0.00 0.00 0.00 0.00 0.00 0.00 0.00 0.00 0.00 0.00 0.00 0.00 0.00 0.00 0.00 0.00 0.00 0.00 0.00 0.00 0.00 0.00 0.00 0.00 0.00 0.00 0.00 0.00 0.00 0.00 0.01 0.00
0.00 0.00 0.00 0.00 0.00 0.00 0.00 0.00 0.00 0.00 0.00 0.00 0.00 0.00 0.00 0.00 0.00 0.00 0.00 0.00 0.00 0.00 0.00 0.00 0.00 0.00 0.00 0.00 0.00 0.00 0.00 0.00 0.00 0.00 0.00 0.00 0.00 0.00 0.00 0.00 0.00 0.00 0.00 0.00 0.00 0.00 0.00 0.00 0.00
0.00 0.00 0.00 0.01 0.00 0.00 0.00 0.00 0.00 0.00 0.00 0.00 0.00 0.00 0.00 0.00 0.00 0.00 0.00 0.00 0.00 0.00 0.00 0.00 0.00 0.00 0.00 0.00 0.00 0.00 0.00 0.00 0.00 0.00 0.00 0.00 0.00 0.00 0.00 0.00 0.00 0.00 0.00 0.00 0.00 0.00 0.00 0.00 0.00
0.00 0.00 0.00 0.00 0.00 0.01 0.00 0.00 0.00 0.00 0.00 0.00 0.00 0.00 0.00 0.00 0.00 0.00 0.00 0.00 0.00 0.00 0.00 0.00 0.00 0.00 0.00 0.00 0.00 0.00 0.00 0.00 0.00 0.00 0.00 0.00 0.00 0.00 0.00 0.01 0.00 0.00 0.01 0.00 0.00 0.00 0.00 0.00 0.00
0.00 0.00 0.00 0.00 0.00 0.00 0.00 0.00 0.00 0.00 0.00 0.00 0.00 0.00 0.00 0.00 0.00 0.00 0.00 0.00 0.00 0.00 0.00 0.00 0.00 0.00 0.00 0.00 0.00 0.00 0.00 0.00 0.00 0.00 0.00 0.00 0.01 0.00 0.00 0.00 0.00 0.00 0.00 0.00 0.00 0.00 0.00 0.00 0.00
0.00 0.00 0.00 0.00 0.00 0.00 0.00 0.00 0.00 0.00 0.00 0.00 0.00 0.00 0.00 0.00 0.00 0.00 0.00 0.00 0.00 0.00 0.00 0.00 0.00 0.00 0.00 0.00 0.00 0.00 0.00 0.00 0.00 0.00 0.00 0.00 0.00 0.00 0.01 0.02 0.01 0.00 0.00 0.00 0.00 0.00 0.03 0.04 0.03
0.00 0.00 0.00 0.00 0.00 0.00 0.00 0.00 0.00 0.00 0.00 0.00 0.00 0.00 0.00 0.00 0.00 0.00 0.00 0.00 0.00 0.00 0.00 0.00 0.00 0.00 0.00 0.00 0.00 0.00 0.00 0.00 0.00 0.00 0.00 0.00 0.00 0.00 0.00 0.00 0.01 0.00 0.01 0.00 0.00 0.00 0.00 0.00 0.05
0.00 0.00 0.00 0.00 0.00 0.00 0.00 0.00 0.00 0.00 0.00 0.00 0.00 0.00 0.00 0.00 0.00 0.00 0.00 0.00 0.00 0.00 0.00 0.00 0.00 0.00 0.00 0.00 0.00 0.00 0.00 0.00 0.00 0.00 0.00 0.01 0.00 0.01 0.01 0.01 0.01 0.04 0.12 0.09 0.02 0.00 0.00 0.00 0.02
0.00 0.00 0.00 0.00 0.00 0.00 0.00 0.00 0.00 0.00 0.00 0.00 0.00 0.00 0.00 0.00 0.00 0.00 0.00 0.00 0.00 0.00 0.00 0.00 0.00 0.00 0.00 0.00 0.00 0.00 0.00 0.00 0.00 0.00 0.00 0.00 0.02 0.01 0.04 0.05 0.05 0.08 0.03 0.02 0.00 0.01 0.01 0.00 0.00
0.00 0.00 0.00 0.00 0.01 0.00 0.00 0.00 0.00 0.00 0.00 0.00 0.00 0.00 0.00 0.00 0.00 0.00 0.00 0.00 0.00 0.00 0.00 0.00 0.00 0.00 0.00 0.00 0.00 0.00 0.00 0.00 0.00 0.00 0.01 0.01 0.03 0.08 0.09 0.12 0.06 0.05 0.01 0.00 0.01 0.02 0.03 0.05 0.06
0.00 0.00 0.00 0.00 0.00 0.00 0.00 0.01 0.00 0.00 0.00 0.00 0.00 0.00 0.00 0.00 0.00 0.00 0.01 0.02 0.01 0.00 0.00 0.00 0.00 0.00 0.00 0.00 0.00 0.00 0.00 0.00 0.01 0.00 0.04 0.05 0.03 0.01 0.07 0.04 0.00 0.00 0.00 0.03 0.01 0.01 0.01 0.02 0.07
0.00 0.00 0.00 0.00 0.00 0.00 0.00 0.02 0.00 0.00 0.00 0.00 0.00 0.00 0.00 0.00 0.00 0.00 0.00 0.00 0.01 0.00 0.00 0.00 0.00 0.00 0.00 0.00 0.00 0.00 0.00 0.01 0.00 0.00 0.02 0.06 0.05 0.00 0.00 0.01 0.03 0.01 0.00 0.01 0.00 0.00 0.00 0.00 0.00
0.00 0.00 0.00 0.00 0.01 0.00 0.01 0.01 0.01 0.01 0.00 0.00 0.00 0.00 0.00 0.00 0.00 0.00 0.00 0.00 0.00 0.00 0.00 0.00 0.00 0.00 0.00 0.00 0.00 0.00 0.00 0.01 0.00 0.00 0.00 0.03 0.03 0.00 0.00 0.03 0.02 0.00 0.01 0.00 0.00 0.00 0.00 0.00 0.00
0.00 0.00 0.00 0.00 0.01 0.01 0.00 0.00 0.00 0.02 0.00 0.00 0.00 0.00 0.00 0.00 0.00 0.00 0.00 0.00 0.00 0.00 0.00 0.00 0.00 0.00 0.00 0.00 0.00 0.00 0.01 0.00 0.00 0.01 0.02 0.00 0.00 0.01 0.01 0.02 0.01 0.00 0.00 0.00 0.00 0.00 0.00 0.00 0.00
0.00 0.00 0.00 0.00 0.00 0.01 0.00 0.00 0.00 0.00 0.00 0.00 0.00 0.00 0.00 0.00 0.00 0.00 0.00 0.00 0.00 0.00 0.00 0.00 0.00 0.00 0.00 0.00 0.00 0.00 0.00 0.00 0.00 0.05 0.07 0.01 0.01 0.01 0.02 0.03 0.00 0.00 0.00 0.00 0.00 0.00 0.00 0.00 0.00
0.00 0.00 0.00 0.00 0.00 0.00 0.00 0.00 0.00 0.00 0.00 0.00 0.01 0.00 0.00 0.00 0.00 0.00 0.00 0.00 0.00 0.00 0.00 0.00 0.00 0.00 0.00 0.00 0.00 0.00 0.00 0.00 0.00 0.06 0.04 0.00 0.00 0.01 0.02 0.00 0.00 0.00 0.00 0.00 0.00 0.00 0.00 0.00 0.00
0.00 0.00 0.00 0.00 0.00 0.00 0.00 0.00 0.00 0.00 0.00 0.02 0.01 0.00 0.00 0.01 0.01 0.00 0.00 0.00 0.00 0.00 0.00 0.00 0.00 0.00 0.00 0.00 0.00 0.00 0.00 0.02 0.02 0.04 0.02 0.01 0.00 0.01 0.01 0.00 0.00 0.00 0.00 0.00 0.00 0.00 0.00 0.00 0.00
0.00 0.00 0.00 0.00 0.00 0.00 0.00 0.00 0.00 0.00 0.00 0.03 0.01 0.00 0.00 0.00 0.01 0.01 0.00 0.00 0.00 0.00 0.00 0.00 0.00 0.00 0.00 0.00 0.00 0.00 0.00 0.01 0.01 0.00 0.00 0.02 0.00 0.00 0.00 0.00 0.00 0.00 0.00 0.00 0.00 0.00 0.00 0.00 0.00
0.00 0.00 0.00 0.00 0.00 0.00 0.00 0.00 0.00 0.00 0.00 0.00 0.00 0.00 0.00 0.00 0.00 0.01 0.01 0.00 0.00 0.00 0.00 0.00 0.00 0.00 0.00 0.00 0.00 0.00 0.00 0.00 0.01 0.04 0.02 0.03 0.00 0.00 0.00 0.00 0.00 0.00 0.00 0.00 0.00 0.00 0.00 0.00 0.00
0.00 0.00 0.00 0.00 0.00 0.00 0.00 0.00 0.00 0.00 0.00 0.00 0.00 0.00 0.00 0.00 0.01 0.01 0.01 0.01 0.00 0.00 0.00 0.00 0.00 0.00 0.00 0.00 0.00 0.00 0.00 0.00 0.02 0.06 0.02 0.01 0.00 0.00 0.00 0.00 0.00 0.00 0.00 0.00 0.00 0.00 0.00 0.00 0.00
0.00 0.00 0.00 0.00 0.00 0.00 0.00 0.00 0.00 0.00 0.00 0.00 0.00 0.00 0.00 0.00 0.01 0.05 0.02 0.00 0.00 0.00 0.00 0.00 0.00 0.00 0.00 0.00 0.00 0.00 0.00 0.00 0.00 0.00 0.00 0.00 0.00 0.00 0.00 0.00 0.00 0.00 0.00 0.00 0.00 0.00 0.00 0.00 0.00
0.00 0.00 0.00 0.00 0.00 0.00 0.00 0.00 0.00 0.00 0.00 0.00 0.00 0.00 0.01 0.02 0.03 0.04 0.03 0.00 0.00 0.00 0.00 0.00 0.00 0.00 0.00 0.00 0.00 0.00 0.00 0.00 0.00 0.00 0.00 0.00 0.00 0.00 0.00 0.00 0.00 0.00 0.00 0.00 0.00 0.00 0.00 0.00 0.00
0.00 0.00 0.00 0.00 0.00 0.00 0.00 0.00 0.00 0.00 0.00 0.00 0.00 0.00 0.00 0.05 0.01 0.01 0.05 0.00 0.00 0.00 0.00 0.00 0.00 0.00 0.00 0.00 0.00 0.00 0.00 0.00 0.00 0.00 0.00 0.00 0.00 0.03 0.00 0.00 0.00 0.00 0.00 0.00 0.00 0.00 0.00 0.00 0.00
0.00 0.00 0.00 0.00 0.00 0.00 0.00 0.00 0.00 0.00 0.00 0.00 0.00 0.00 0.00 0.01 0.00 0.00 0.00 0.00 0.00 0.00 0.00 0.00 0.00 0.00 0.00 0.00 0.00 0.00 0.00 0.00 0.00 0.00 0.03 0.01 0.01 0.04 0.00 0.00 0.00 0.00 0.00 0.00 0.00 0.00 0.00 0.00 0.00
0.00 0.00 0.00 0.00 0.00 0.00 0.00 0.00 0.00 0.00 0.00 0.00 0.00 0.00 0.00 0.00 0.00 0.00 0.00 0.00 0.01 0.00 0.00 0.00 0.00 0.00 0.00 0.00 0.00 0.00 0.00 0.00 0.01 0.02 0.13 0.02 0.02 0.02 0.00 0.00 0.00 0.00 0.00 0.00 0.00 0.00 0.00 0.00 0.00
0.00 0.00 0.00 0.00 0.00 0.00 0.00 0.00 0.00 0.00 0.00 0.00 0.00 0.00 0.00 0.00 0.00 0.00 0.00 0.00 0.00 0.00 0.00 0.00 0.00 0.00 0.00 0.00 0.00 0.00 0.00 0.00 0.02 0.15 0.14 0.06 0.06 0.02 0.03 0.03 0.03 0.01 0.00 0.00 0.00 0.00 0.00 0.00 0.00
MSLP
1007.40 1007.33 1007.60 1008.03 1008.60 1008.13 1007.88 1007.57 1006.50 1006.80 1007.18 1007.15 1006.52 1006.72 1007.90 1008.60 1009.35 1011.44 1011.65 1012.41 1013.00 1013.47 1013.67 1013.87 1014.14 1014.22 1014.44 1014.59 1014.89 1015.06 1015.09 1015.23 1015.34 1015.50 1015.69 1015.69 1015.82 1015.95 1016.15 1016.40 1016.37 1016.49 1016.36 1016.41 1016.52 1016.67 1016.66 1016.66 1016.71
1007.09 1007.28 1007.75 1007.87 1008.08 1008.31 1007.91 1007.39 1006.82 1006.47 1006.80 1007.05 1006.89 1007.21 1007.86 1009.50 1009.91 1011.08 1012.04 1012.56 1012.82 1013.27 1013.74 1013.99 1014.25 1014.44 1014.59 1014.91 1015.05 1015.19 1015.25 1015.41 1015.49 1015.70 1015.82 1015.81 1015.95 1016.12 1016.27 1016.59 1016.57 1016.61 1016.49 1016.54 1016.52 1016.71 1016.82 1016.72 1016.73
1006.98 1006.75 1007.34 1008.00 1008.23 1007.97 1007.48 1007.42 1006.94 1006.85 1006.54 1006.27 1007.03 1007.46 1008.49 1010.08 1010.52 1011.00 1011.79 1012.49 1012.91 1013.48 1013.79 1014.06 1014.26 1014.54 1014.70 1014.87 1015.00 1015.23 1015.51 1015.64 1015.75 1015.82 1015.85 1015.99 1016.24 1016.32 1016.45 1016.54 1016.76 1016.77 1016.74 1016.71 1016.70 1016.81 1016.86 1016.93 1016.98
1007.07 1007.22 1007.49 1007.74 1008.06 1007.59 1006.66 1006.32 1006.33 1006.66 1006.88 1006.28 1006.90 1008.17 1009.08 1009.40 1010.03 1010.91 1011.90 1012.56 1013.09 1013.70 1013.95 1014.14 1014.42 1014.65 1014.79 1014.95 1015.19 1015.31 1015.59 1015.64 1015.66 1015.87 1016.03 1016.31 1016.51 1016.59 1016.58 1016.59 1016.72 1016.86 1016.92 1016.95 1016.94 1017.07 1017.04 1017.09 1017.10
1006.78 1007.60 1007.98 1007.85 1007.58 1006.83 1006.40 1005.88 1006.34 1006.34 1006.48 1007.03 1007.32 1008.76 1009.41 1010.01 1010.32 1011.34 1012.01 1012.61 1013.22 1013.92 1014.12 1014.30 1014.47 1014.70 1014.85 1015.02 1015.20 1015.60 1015.69 1015.68 1015.79 1016.03 1016.22 1016.47 1016.59 1016.68 1016.71 1016.81 1016.86 1016.88 1016.93 1017.03 1017.08 1017.17 1017.20 1017.19 1017.12
1006.34 1006.71 1007.39 1007.46 1007.21 1006.52 1005.96 1005.87 1006.04 1006.16 1006.63 1007.22 1007.89 1008.73 1009.96 1010.33 1010.74 1011.55 1012.03 1012.64 1013.02 1013.70 1014.07 1014.34 1014.56 1014.70 1014.84 1015.08 1015.35 1015.59 1015.75 1015.90 1016.04 1016.24 1016.42 1016.61 1016.76 1016.80 1016.80 1016.95 1017.03 1017.05 1017.08 1017.13 1017.18 1017.31 1017.37 1017.31 1017.16
1006.75 1006.48 1006.63 1006.82 1006.63 1006.22 1005.60 1005.52 1005.66 1005.89 1006.39 1007.14 1007.49 1008.81 1010.26 1010.82 1010.79 1011.50 1012.18 1012.82 1013.26 1013.47 1013.86 1014.28 1014.54 1014.69 1014.88 1015.12 1015.41 1015.61 1015.82 1016.03 1016.10 1016.25 1016.46 1016.62 1016.76 1016.82 1016.82 1016.91 1016.92 1017.09 1017.21 1017.30 1017.27 1017.28 1017.35 1017.41 1017.29
1006.16 1006.84 1006.06 1005.91 1005.91 1005.70 1005.04 1005.12 1005.54 1005.73 1006.45 1006.81 1007.27 1008.63 1009.62 1010.17 1010.92 1011.78 1012.50 1013.14 1013.55 1013.85 1013.89 1014.27 1014.55 1014.71 1014.96 1015.19 1015.46 1015.63 1015.75 1015.92 1016.14 1016.26 1016.31 1016.43 1016.56 1016.60 1016.73 1016.81 1016.84 1016.92 1017.09 1017.22 1017.32 1017.33 1017.34 1017.34 1017.33
1005.33 1005.93 1005.44 1004.73 1004.74 1004.84 1004.54 1004.48 1005.11 1005.21 1006.12 1006.60 1006.71 1007.50 1008.66 1010.00 1011.15 1012.19 1013.02 1013.75 1014.07 1014.27 1014.34 1014.33 1014.61 1014.84 1015.07 1015.32 1015.43 1015.54 1015.72 1015.83 1015.96 1016.04 1016.09 1016.21 1016.39 1016.48 1016.51 1016.64 1016.78 1016.83 1016.92 1017.01 1017.14 1017.18 1017.12 1017.11 1017.03
1004.40 1004.83 1003.85 1003.48 1003.55 1003.91 1003.90 1004.08 1004.72 1005.57 1006.53 1007.07 1007.52 1008.32 1008.91 1010.16 1011.24 1012.02 1012.79 1013.49 1014.02 1014.22 1014.48 1014.52 1014.56 1014.88 1015.09 1015.11 1015.30 1015.60 1015.80 1015.86 1015.89 1015.98 1016.05 1016.17 1016.24 1016.28 1016.33 1016.47 1016.61 1016.70 1016.78 1016.83 1016.86 1016.89 1016.87 1016.80 1016.95
1002.81 1002.77 1002.87 1002.75 1002.79 1002.95 1003.66 1004.26 1004.78 1005.70 1006.80 1006.74 1007.38 1008.24 1008.92 1010.17 1011.16 1011.61 1012.29 1012.52 1012.82 1013.49 1014.17 1014.35 1014.48 1014.55 1014.86 1014.90 1015.26 1015.54 1015.74 1015.95 1016.00 1015.95 1015.92 1015.94 1016.15 1016.32 1016.36 1016.54 1016.60 1016.52 1016.47 1016.64 1016.61 1016.63 1016.54 1016.69 1016.87
1002.61 1002.25 1001.70 1002.06 1002.37 1003.02 1003.81 1004.24 1004.81 1005.29 1006.13 1006.82 1007.29 1007.89 1008.65 1009.74 1010.69 1011.33 1011.95 1012.39 1012.75 1013.19 1013.55 1013.99 1014.14 1014.36 1014.44 1014.78 1015.00 1015.34 1015.64 1015.89 1015.89 1015.70 1015.71 1015.89 1016.12 1016.20 1016.26 1016.37 1016.28 1016.37 1016.69 1016.75 1016.77 1016.66 1016.45 1016.42 1016.65
1002.25 1002.20 1001.51 1001.73 1002.64 1003.14 1003.55 1004.41 1004.60 1005.34 1006.12 1007.05 1007.70 1008.36 1008.84 1009.29 1010.05 1010.92 1011.08 1011.71 1012.30 1012.75 1013.09 1013.53 1013.90 1014.10 1014.15 1014.61 1014.81 1015.08 1015.25 1015.49 1015.37 1015.39 1015.37 1015.65 1015.93 1016.12 1016.10 1016.01 1015.85 1015.82 1016.02 1016.24 1016.39 1016.44 1016.32 1016.19 1016.25
1002.33 1002.02 1001.74 1002.09 1002.87 1003.86 1003.84 1004.79 1004.80 1006.09 1006.32 1006.99 1007.58 1008.33 1008.88 1009.13 1009.59 1010.12 1010.76 1011.30 1011.87 1012.18 1012.51 1013.01 1013.42 1013.63 1013.94 1014.43 1014.55 1014.77 1014.76 1014.81 1014.93 1015.04 1015.18 1015.72 1015.90 1015.96 1015.99 1015.77 1015.81 1015.80 1015.64 1015.83 1016.03 1015.96 1016.00 1015.94 1015.79
1002.48 1002.27 1002.54 1003.14 1002.96 1004.13 1003.83 1005.80 1005.83 1006.01 1006.50 1006.93 1007.37 1007.78 1008.48 1008.78 1009.11 1009.58 1010.30 1010.93 1011.25 1011.72 1012.05 1012.69 1013.29 1013.54 1013.95 1014.25 1014.32 1014.44 1014.27 1014.30 1014.84 1014.94 1015.64 1015.70 1015.74 1015.70 1015.65 1015.75 1015.91 1015.52 1015.49 1015.43 1015.45 1015.59 1015.76 1015.63 1015.64
1003.26 1003.16 1003.69 1003.89 1003.47 1004.53 1005.32 1005.77 1005.60 1005.95 1006.23 1006.99 1007.28 1007.61 1007.95 1008.16 1008.50 1009.16 1009.75 1010.41 1011.04 1011.37 1011.68 1012.27 1012.97 1013.45 1013.81 1014.21 1014.09 1013.93 1013.95 1014.20 1014.61 1014.82 1015.18 1015.34 1015.29 1015.30 1015.58 1015.68 1015.52 1015.27 1015.37 1015.22 1015.28 1015.62 1015.69 1015.49 1015.48
1004.58 1004.81 1004.56 1003.87 1003.63 1004.35 1005.58 1006.53 1005.37 1005.61 1005.88 1006.68 1007.01 1007.18 1007.49 1007.81 1007.95 1008.58 1009.08 1009.76 1010.32 1010.78 1011.37 1012.04 1012.63 1013.27 1013.54 1013.72 1013.71 1013.56 1014.14 1014.53 1014.38 1014.66 1014.78 1015.17 1015.02 1015.19 1015.26 1015.37 1015.27 1015.17 1015.22 1015.22 1015.37 1015.51 1015.82 1015.59 1015.31
1005.41 1005.50 1004.80 1004.46 1004.65 1005.04 1005.34 1005.92 1005.82 1005.84 1005.72 1006.35 1006.66 1006.95 1007.21 1007.53 1007.62 1008.01 1008.62 1009.41 1010.00 1010.65 1011.10 1011.67 1012.18 1012.65 1013.06 1013.42 1013.71 1013.75 1014.11 1014.44 1014.39 1014.46 1014.47 1014.82 1014.79 1015.06 1015.04 1015.12 1015.08 1014.98 1015.17 1015.25 1015.39 1015.68 1015.81 1015.61 1015.27
1005.24 1005.24 1004.79 1004.38 1004.43 1005.05 1005.10 1005.37 1005.38 1006.14 1006.27 1006.41 1006.57 1006.84 1007.07 1007.19 1007.28 1007.68 1008.41 1008.95 1009.75 1010.48 1011.20 1011.64 1012.19 1012.60 1012.97 1013.54 1013.92 1014.11 1014.29 1014.78 1014.84 1014.71 1014.65 1014.40 1014.50 1014.49 1014.67 1014.88 1015.18 1014.96 1015.26 1015.42 1015.63 1015.88 1015.99 1015.79 1015.44
1004.58 1004.97 1004.84 1004.44 1004.10 1004.86 1005.08 1005.08 1005.54 1005.31 1005.75 1005.72 1006.61 1006.79 1007.05 1007.23 1007.46 1007.79 1008.02 1008.94 1009.28 1009.95 1010.69 1011.49 1011.87 1012.41 1012.80 1013.14 1013.49 1013.67 1014.04 1014.40 1014.55 1014.72 1014.76 1014.42 1014.19 1014.41 1014.58 1015.01 1015.17 1015.29 1015.40 1015.54 1015.76 1015.99 1016.20 1016.19 1015.80
1004.18 1004.45 1004.28 1004.08 1004.43 1003.93 1004.50 1005.85 1005.76 1006.16 1006.31 1006.03 1005.87 1005.70 1005.75 1006.59 1006.96 1007.61 1007.91 1008.37 1009.04 1009.50 1010.24 1010.91 1011.60 1012.08 1012.49 1012.87 1013.36 1013.77 1014.11 1014.44 1014.61 1014.76 1014.67 1014.46 1014.34 1014.48 1014.51 1014.74 1015.14 1015.38 1015.38 1015.80 1016.08 1016.24 1016.31 1016.50 1016.30
1003.95 1002.97 1003.66 1003.73 1004.39 1004.81 1004.83 1006.36 1006.54 1006.95 1006.97 1006.59 1005.67 1004.51 1004.99 1005.75 1006.87 1006.95 1007.73 1008.34 1008.72 1008.97 1009.41 1010.20 1011.04 1011.70 1012.17 1012.66 1013.23 1013.57 1013.93 1014.40 1014.35 1014.37 1014.42 1014.50 1014.43 1014.47 1014.64 1014.94 1015.20 1015.48 1015.71 1015.98 1016.15 1016.21 1016.25 1016.38 1016.71
1003.07 1002.54 1003.00 1003.65 1004.91 1005.47 1005.55 1006.11 1006.39 1006.83 1006.60 1006.44 1005.53 1004.59 1005.11 1005.69 1006.14 1006.51 1006.80 1007.40 1007.91 1008.52 1009.18 1009.68 1010.53 1011.24 1011.70 1012.24 1012.65 1013.31 1013.68 1013.72 1014.03 1014.24 1014.39 1014.53 1014.63 1014.54 1014.71 1014.90 1015.14 1015.53 1015.80 1016.05 1016.10 1016.23 1016.37 1016.47 1016.90
1001.80 1002.49 1003.56 1004.60 1005.43 1005.93 1005.58 1006.25 1006.53 1006.33 1005.17 1005.39 1004.82 1005.01 1005.61 1006.22 1006.25 1006.14 1006.53 1007.21 1007.86 1008.30 1008.86 1009.46 1009.99 1010.67 1011.29 1011.87 1012.30 1012.74 1013.27 1013.65 1014.12 1014.39 1014.59 1014.66 1014.82 1014.93 1014.78 1014.79 1015.11 1015.44 1015.77 1015.84 1015.94 1016.28 1016.50 1016.84 1017.10
1002.27 1004.10 1005.78 1006.63 1007.37 1006.87 1005.98 1006.16 1004.78 1003.70 1003.51 1003.33 1003.85 1005.63 1005.81 1005.92 1006.53 1006.35 1006.24 1006.53 1007.27 1007.89 1008.40 1008.94 1009.56 1010.42 1010.92 1011.55 1011.87 1012.15 1012.74 1013.36 1013.61 1014.02 1014.34 1014.80 1015.05 1015.21 1015.12 1015.15 1015.43 1015.80 1015.69 1015.70 1015.96 1016.40 1016.88 1017.09 1017.38
1002.69 1004.25 1006.20 1007.56 1008.18 1007.33 1006.17 1005.67 1003.62 1002.93 1003.22 1003.93 1004.84 1005.46 1005.78 1006.43 1005.34 1005.11 1005.06 1005.51 1006.48 1006.74 1007.48 1008.16 1009.10 1009.86 1010.49 1010.99 1011.53 1011.84 1012.22 1012.68 1013.13 1013.31 1013.96 1014.42 1014.70 1014.88 1015.20 1015.38 1015.38 1015.73 1015.91 1015.98 1016.22 1016.89 1017.29 1017.39 1017.68
1002.59 1003.94 1005.06 1006.94 1007.92 1008.00 1006.66 1005.36 1003.36 1002.70 1003.42 1003.64 1004.25 1004.97 1005.13 1005.24 1004.44 1005.09 1004.92 1004.49 1005.15 1006.11 1006.54 1007.30 1008.48 1009.31 1009.88 1010.31 1011.00 1011.44 1011.85 1012.37 1012.70 1013.07 1013.64 1014.10 1014.52 1014.86 1015.25 1015.53 1015.86 1016.02 1016.33 1016.42 1016.87 1017.28 1017.62 1017.80 1018.06
1001.88 1003.14 1005.29 1007.19 1008.22 1008.39 1007.23 1005.84 1004.67 1003.38 1003.64 1004.02 1003.88 1004.08 1004.20 1003.42 1002.18 1002.54 1003.36 1004.01 1004.16 1005.15 1005.72 1006.89 1007.73 1008.44 1009.13 1009.76 1010.40 1011.01 1011.41 1011.97 1012.52 1013.18 1013.75 1014.10 1014.55 1014.79 1015.16 1015.63 1016.11 1016.45 1016.86 1017.03 1017.32 1017.81 1018.14 1018.26 1018.48
1002.25 1003.23 1005.01 1006.69 1007.64 1008.10 1007.38 1006.05 1003.58 1003.07 1002.83 1003.67 1003.81 1003.08 1002.89 1002.49 1002.52 1002.65 1002.90 1003.56 1004.40 1004.81 1005.51 1006.29 1007.32 1008.18 1008.93 1009.41 1009.95 1010.56 1010.90 1011.60 1012.23 1012.87 1013.40 1014.04 1014.48 1014.75 1015.21 1015.72 1016.15 1016.60 1017.09 1017.43 1017.75 1018.25 1018.56 1018.81 1018.92
1001.71 1002.71 1004.32 1006.47 1007.36 1007.30 1006.75 1004.95 1003.05 1002.78 1002.70 1003.33 1003.52 1002.93 1002.75 1002.94 1003.61 1003.82 1004.01 1003.81 1004.49 1004.60 1005.45 1006.13 1006.99 1007.63 1008.31 1008.54 1009.35 1010.03 1010.69 1011.41 1012.13 1013.14 1013.93 1014.11 1014.72 1014.95 1015.38 1015.86 1016.23 1016.65 1017.20 1017.77 1018.04 1018.52 1018.75 1019.10 1019.49
Thickness
5846 5845 5843 5828 5793 5787 5778 5788 5811 5797 5793 5806 5816 5810 5798 5796 5783 5754 5791 5788 5783 5778 5776 5775 5772 5773 5771 5773 5771 5771 5771 5770 5770 5770 5770 5771 5768 5764 5761 5759 5760 5759 5760 5758 5755 5752 5752 5753 5752
5854 5849 5840 5822 5783 5767 5769 5798 5795 5806 5808 5812 5814 5809 5800 5780 5797 5788 5785 5790 5785 5781 5779 5778 5776 5775 5775 5772 5772 5771 5770 5770 5770 5769 5768 5770 5767 5765 5762 5759 5760 5760 5760 5758 5756 5752 5750 5752 5753
5856 5856 5830 5802 5780 5768 5775 5793 5801 5810 5817 5818 5808 5815 5802 5780 5795 5795 5797 5793 5787 5783 5780 5779 5778 5777 5775 5775 5774 5773 5771 5770 5770 5769 5769 5769 5766 5764 5763 5762 5759 5758 5758 5758 5756 5753 5752 5751 5750
5848 5840 5828 5792 5781 5795 5800 5809 5816 5811 5812 5825 5818 5795 5805 5811 5802 5803 5800 5795 5789 5783 5782 5780 5778 5777 5777 5776 5775 5774 5772 5772 5773 5771 5769 5766 5765 5764 5764 5764 5762 5759 5757 5756 5756 5753 5753 5752 5751
5849 5825 5792 5788 5791 5806 5815 5822 5817 5808 5814 5810 5815 5790 5792 5806 5810 5805 5799 5795 5788 5783 5782 5782 5780 5779 5778 5777 5777 5773 5773 5774 5773 5771 5769 5767 5766 5765 5766 5765 5763 5762 5760 5757 5755 5754 5753 5753 5754
5836 5833 5795 5779 5793 5810 5820 5824 5821 5813 5813 5809 5801 5795 5789 5806 5801 5801 5801 5795 5791 5787 5784 5782 5781 5780 5780 5778 5776 5775 5774 5773 5771 5770 5768 5766 5765 5765 5766 5765 5762 5762 5760 5758 5758 5755 5752 5753 5755
5825 5817 5804 5803 5801 5804 5817 5833 5821 5818 5813 5807 5814 5788 5791 5798 5802 5803 5798 5794 5791 5790 5788 5784 5782 5782 5781 5779 5778 5775 5774 5771 5771 5770 5769 5767 5767 5767 5767 5766 5765 5762 5759 5758 5758 5759 5756 5753 5754
5835 5816 5817 5817 5805 5804 5829 5833 5836 5826 5814 5831 5823 5786 5786 5805 5806 5799 5796 5792 5790 5789 5788 5786 5784 5784 5781 5779 5777 5776 5775 5773 5771 5771 5771 5770 5770 5770 5769 5768 5767 5765 5762 5759 5757 5757 5758 5757 5755
5855 5809 5803 5823 5819 5822 5840 5835 5842 5847 5826 5825 5826 5816 5815 5813 5806 5793 5788 5784 5783 5784 5786 5786 5784 5783 5782 5779 5778 5777 5775 5774 5773 5772 5772 5773 5772 5771 5771 5770 5768 5766 5765 5762 5760 5758 5759 5758 5758
5842 5810 5832 5851 5850 5838 5850 5846 5839 5828 5817 5811 5811 5815 5814 5810 5800 5790 5784 5780 5779 5781 5782 5785 5785 5783 5781 5780 5779 5777 5776 5775 5775 5776 5775 5774 5772 5772 5772 5770 5768 5767 5766 5766 5764 5763 5762 5761 5758
5861 5838 5857 5860 5865 5864 5850 5846 5849 5826 5806 5818 5811 5811 5811 5806 5797 5793 5787 5790 5790 5788 5784 5785 5786 5784 5782 5782 5780 5778 5777 5776 5776 5777 5777 5776 5774 5773 5772 5771 5770 5770 5770 5768 5768 5767 5766 5764 5759
5846 5867 5876 5874 5873 5862 5845 5852 5839 5841 5830 5833 5827 5824 5817 5803 5799 5795 5790 5790 5789 5788 5788 5787 5787 5786 5786 5783 5782 5779 5777 5776 5777 5779 5778 5776 5775 5773 5773 5772 5773 5773 5770 5768 5767 5767 5768 5767 5762
5855 5864 5879 5879 5870 5862 5861 5845 5845 5839 5843 5837 5830 5821 5813 5810 5806 5803 5802 5799 5794 5789 5791 5791 5789 5789 5788 5785 5783 5780 5780 5779 5781 5781 5782 5779 5778 5776 5774 5775 5777 5778 5776 5772 5769 5769 5769 5769 5766
5865 5867 5874 5873 5863 5857 5848 5839 5848 5839 5846 5837 5829 5820 5814 5813 5808 5805 5800 5799 5797 5798 5795 5795 5793 5793 5789 5787 5786 5782 5781 5782 5784 5784 5783 5778 5778 5776 5776 5777 5777 5777 5777 5776 5772 5770 5771 5771 5769
5865 5854 5861 5854 5863 5846 5857 5820 5827 5844 5843 5835 5831 5829 5823 5819 5817 5810 5804 5800 5802 5802 5801 5797 5794 5794 5791 5789 5786 5786 5789 5790 5788 5785 5780 5778 5777 5777 5777 5777 5776 5779 5777 5777 5776 5772 5771 5772 5770
5844 5842 5817 5842 5852 5853 5837 5799 5839 5846 5843 5832 5834 5832 5830 5829 5825 5818 5812 5806 5800 5801 5800 5799 5797 5792 5790 5786 5788 5791 5793 5791 5788 5783 5781 5780 5780 5779 5778 5777 5779 5778 5777 5778 5777 5772 5769 5772 5771
5819 5799 5815 5833 5853 5846 5828 5799 5840 5850 5847 5835 5837 5837 5834 5831 5832 5826 5821 5813 5807 5805 5801 5798 5796 5792 5790 5789 5789 5793 5791 5787 5788 5784 5783 5781 5782 5780 5781 5778 5778 5778 5777 5777 5774 5770 5766 5769 5771
5802 5795 5815 5816 5823 5829 5823 5812 5832 5844 5850 5841 5840 5840 5837 5832 5832 5834 5828 5822 5814 5808 5804 5799 5797 5794 5793 5791 5789 5792 5789 5787 5786 5785 5784 5782 5781 5778 5780 5777 5777 5779 5776 5776 5773 5768 5764 5766 5769
5821 5815 5815 5827 5841 5826 5821 5822 5834 5836 5842 5837 5838 5837 5837 5836 5840 5839 5832 5830 5822 5814 5806 5803 5798 5795 5793 5788 5786 5785 5784 5782 5783 5783 5783 5785 5783 5782 5781 5780 5776 5777 5775 5773 5769 5763 5760 5761 5766
5824 5812 5807 5829 5837 5824 5820 5824 5840 5847 5844 5846 5836 5838 5833 5834 5836 5835 5837 5827 5829 5822 5814 5806 5803 5799 5797 5794 5792 5791 5788 5787 5787 5784 5782 5785 5785 5783 5782 5779 5777 5774 5772 5769 5767 5761 5757 5758 5762
5819 5808 5811 5817 5828 5839 5828 5808 5823 5834 5837 5844 5848 5851 5843 5834 5835 5836 5835 5831 5829 5827 5820 5812 5808 5805 5801 5799 5796 5793 5791 5788 5785 5784 5784 5784 5783 5783 5782 5779 5774 5771 5771 5765 5762 5758 5757 5753 5757
5791 5842 5836 5833 5815 5786 5831 5769 5812 5811 5818 5829 5841 5858 5854 5849 5837 5844 5834 5828 5826 5831 5831 5820 5812 5807 5804 5802 5796 5792 5787 5781 5785 5786 5787 5784 5782 5781 5779 5775 5771 5770 5766 5761 5759 5759 5758 5756 5751
5819 5844 5841 5836 5806 5799 5813 5789 5803 5815 5812 5818 5837 5851 5847 5845 5847 5845 5843 5838 5835 5836 5829 5825 5816 5810 5806 5802 5799 5792 5788 5790 5788 5785 5784 5783 5781 5780 5777 5774 5772 5768 5763 5759 5759 5757 5756 5755 5750
5854 5839 5821 5811 5797 5773 5806 5797 5788 5798 5818 5824 5840 5844 5842 5840 5844 5850 5849 5841 5834 5838 5833 5825 5818 5812 5807 5802 5799 5796 5790 5787 5783 5781 5778 5779 5776 5775 5775 5774 5770 5765 5762 5760 5758 5754 5753 5749 5747
5828 5793 5749 5758 5751 5761 5797 5797 5806 5836 5840 5849 5850 5833 5840 5840 5833 5836 5843 5841 5836 5836 5832 5828 5820 5809 5807 5800 5799 5798 5792 5789 5786 5782 5778 5774 5770 5769 5770 5769 5765 5760 5759 5757 5754 5749 5746 5745 5743
5818 5794 5749 5742 5737 5762 5792 5778 5812 5846 5853 5850 5841 5833 5833 5825 5842 5842 5847 5850 5841 5845 5840 5832 5822 5814 5808 5804 5800 5799 5796 5791 5787 5785 5778 5775 5772 5769 5766 5764 5763 5759 5755 5752 5749 5743 5740 5740 5738
5816 5793 5802 5772 5768 5750 5774 5803 5834 5847 5841 5847 5842 5833 5831 5830 5845 5842 5844 5855 5856 5847 5845 5837 5826 5819 5814 5810 5803 5801 5799 5793 5790 5785 5779 5775 5771 5767 5762 5758 5756 5754 5749 5746 5744 5739 5736 5734 5732
5826 5824 5780 5756 5754 5756 5759 5784 5786 5822 5823 5831 5836 5840 5840 5848 5861 5860 5855 5855 5861 5853 5848 5839 5833 5825 5820 5814 5808 5802 5799 5795 5789 5781 5774 5770 5768 5764 5759 5753 5750 5746 5741 5741 5738 5732 5729 5728 5725
5812 5800 5789 5776 5759 5746 5740 5765 5817 5823 5831 5825 5832 5848 5850 5856 5856 5860 5863 5855 5853 5851 5847 5841 5834 5826 5820 5817 5810 5803 5800 5793 5787 5779 5770 5765 5760 5757 5753 5747 5743 5741 5736 5733 5730 5726 5723 5720 5719
5825 5812 5788 5754 5771 5759 5754 5771 5837 5834 5837 5831 5830 5842 5850 5859 5848 5849 5847 5851 5848 5848 5842 5840 5835 5829 5825 5824 5814 5806 5798 5788 5779 5769 5760 5759 5753 5751 5745 5740 5739 5736 5731 5726 5724 5720 5718 5715 5711